EW5413 Weather Reports


time (UTC)temp
C
wind
direction
speed
KPH
gust
KPH
rain 1hr
cm
rain 24hr
cm
rain mn
cm
humidity
%
barometer
mb
20260506224027 7 113 12.9 20.9 0.00 0.03 0.03 68 1010.1
20260506223238 7 113 19.3 25.7 0.00 0.03 0.03 65 1010.0
20260506222019 7 135 12.9 22.5 0.00 0.03 0.03 68 1010.1
20260506221019 7 113 16.1 24.1 0.00 0.03 0.03 68 1010.3
20260506220048 7 113 14.5 22.5 0.00 0.03 0.03 69 1010.3
20260506215040 7 113 14.5 25.7 0.00 0.03 0.03 69 1010.5
20260506214019 7 113 17.7 22.5 0.00 0.03 0.03 71 1010.5
20260506213028 7 113 16.1 24.1 0.00 0.03 0.03 72 1010.5
20260506212019 7 113 17.7 24.1 0.00 0.03 0.03 71 1010.7
20260506211019 7 113 20.9 30.6 0.00 0.03 0.03 72 1010.7
20260506210019 7 180 1.6 11.3 0.00 0.03 0.03 75 1010.6
20260506205028 7 158 3.2 9.7 0.00 0.03 0.03 74 1010.6
20260506204019 7 158 8.0 12.9 0.00 0.03 0.03 74 1010.7
20260506203036 7 180 8.0 11.3 0.00 0.03 0.03 75 1010.7
20260506202019 6 158 6.4 14.5 0.00 0.03 0.03 78 1010.7
20260506201031 6 0.0 0.0 0.00 0.03 0.03 79 1010.9
20260506200019 6 0.0 0.0 0.00 0.03 0.03 79 1010.9
20260506195019 6 0.0 0.0 0.00 0.03 0.03 78 1010.9
20260506194039 6 0.0 0.0 0.00 0.03 0.03 78 1011.1
20260506193028 6 113 1.6 3.2 0.00 0.03 0.03 78 1011.0
20260506192019 6 0.0 0.0 0.03 0.03 0.03 77 1011.3
20260506191027 6 0.0 4.8 0.03 0.03 0.03 76 1011.3
20260506190019 6 113 1.6 6.4 0.03 0.03 0.03 75 1011.5
20260506185036 6 0.0 0.0 0.03 0.03 0.03 74 1011.8
20260506184028 6 113 3.2 4.8 0.03 0.03 0.03 73 1011.9
20260506183020 7 113 8.0 12.9 0.03 0.03 0.03 71 1012.0
20260506182028 7 113 4.8 12.9 0.00 0.00 0.00 69 1012.0
20260506181019 8 0.0 1.6 0.00 0.00 0.00 68 1012.0
20260506180019 8 0.0 6.4 0.00 0.00 0.00 67 1011.9
20260506175018 8 338 1.6 3.2 0.00 0.00 0.00 66 1011.9
20260506174018 9 315 1.6 8.0 0.00 0.00 0.00 63 1011.8
20260506173019 9 45 1.6 6.4 0.00 0.00 0.00 61 1011.7
20260506172028 9 338 3.2 6.4 0.00 0.00 0.00 58 1011.7
20260506171027 9 315 3.2 6.4 0.00 0.00 0.00 58 1011.6
20260506170019 9 315 3.2 8.0 0.00 0.00 0.00 58 1011.6
20260506165019 9 315 4.8 9.7 0.00 0.00 0.00 58 1011.8
20260506164023 10 293 3.2 9.7 0.00 0.00 0.00 57 1011.8
20260506163036 10 315 4.8 11.3 0.00 0.00 0.00 58 1011.8
20260506162019 10 315 8.0 16.1 0.00 0.00 0.00 56 1011.9
20260506161019 10 315 6.4 12.9 0.00 0.00 0.00 57 1011.9
20260506160019 10 293 4.8 9.7 0.00 0.00 0.00 58 1012.0
20260506155029 10 315 4.8 9.7 0.00 0.00 0.00 57 1012.0
20260506154021 10 315 4.8 11.3 0.00 0.00 0.00 57 1011.9
20260506153020 11 293 4.8 11.3 0.00 0.00 0.00 55 1012.2
20260506152029 11 315 8.0 12.9 0.00 0.00 0.00 52 1012.0
20260506151029 11 293 8.0 12.9 0.00 0.00 0.00 52 1012.2
20260506150029 10 315 8.0 12.9 0.00 0.00 0.00 53 1012.3
20260506145019 11 293 4.8 11.3 0.00 0.00 0.00 53 1012.4
20260506144042 11 293 3.2 11.3 0.00 0.00 0.00 51 1012.6
20260506143040 11 315 6.4 14.5 0.00 0.00 0.00 52 1012.6
20260506142044 11 293 8.0 17.7 0.00 0.00 0.00 52 1012.7
20260506141019 10 315 4.8 11.3 0.00 0.00 0.00 55 1012.8
20260506140021 10 315 8.0 12.9 0.00 0.00 0.00 53 1012.9
20260506135029 10 293 8.0 14.5 0.00 0.00 0.00 54 1013.0
20260506134029 10 315 9.7 14.5 0.00 0.00 0.00 54 1013.0
20260506133021 10 315 6.4 14.5 0.00 0.00 0.00 54 1013.1
20260506132049 10 293 6.4 12.9 0.00 0.00 0.00 58 1013.2
20260506131020 10 315 8.0 12.9 0.00 0.00 0.00 56 1013.2
20260506130036 10 315 6.4 12.9 0.00 0.00 0.00 56 1013.3
20260506125018 10 315 8.0 14.5 0.00 0.00 0.00 56 1013.2
20260506124018 10 315 6.4 12.9 0.00 0.00 0.00 56 1013.4
20260506123022 10 315 8.0 12.9 0.00 0.00 0.00 56 1013.5
20260506122029 10 315 6.4 11.3 0.00 0.00 0.00 57 1013.5
20260506121020 10 315 8.0 16.1 0.00 0.00 0.00 56 1013.6
20260506120029 10 293 8.0 12.9 0.00 0.00 0.00 55 1013.6
20260506115030 10 315 8.0 12.9 0.00 0.00 0.00 52 1013.7
20260506114040 10 315 6.4 11.3 0.00 0.00 0.00 53 1013.7
20260506113021 9 315 6.4 14.5 0.00 0.00 0.00 55 1013.7
20260506112041 9 315 6.4 11.3 0.00 0.00 0.00 54 1013.7
20260506111020 10 293 6.4 11.3 0.00 0.00 0.00 53 1014.0
20260506110020 9 293 6.4 12.9 0.00 0.00 0.00 55 1014.1
20260506105040 8 315 8.0 16.1 0.00 0.00 0.00 55 1014.0
20260506104120 8 315 6.4 11.3 0.00 0.00 0.00 56 1014.0
20260506103020 8 293 6.4 12.9 0.00 0.00 0.00 56 1014.0
20260506102029 8 315 8.0 12.9 0.00 0.00 0.00 57 1014.0
20260506101021 8 315 8.0 14.5 0.00 0.00 0.00 56 1014.2
20260506100041 8 315 4.8 9.7 0.00 0.00 0.00 57 1014.2
20260506095020 8 293 4.8 8.0 0.00 0.00 0.00 55 1014.3
20260506094029 8 315 3.2 8.0 0.00 0.00 0.00 58 1014.2
20260506093021 8 315 4.8 8.0 0.00 0.00 0.00 57 1014.4
20260506092029 8 293 1.6 6.4 0.00 0.00 0.00 56 1014.4
20260506091031 7 293 3.2 6.4 0.00 0.00 0.00 57 1014.4
20260506090021 7 315 3.2 6.4 0.00 0.00 0.00 59 1014.7
20260506085021 7 315 3.2 6.4 0.00 0.00 0.00 61 1014.8
20260506084028 7 293 4.8 9.7 0.00 0.00 0.00 61 1014.9
20260506083032 7 293 6.4 9.7 0.00 0.00 0.00 63 1015.2
20260506082049 7 315 3.2 6.4 0.00 0.00 0.00 67 1015.1
20260506081031 6 158 1.6 6.4 0.00 0.00 0.00 70 1015.1
20260506073029 4 0.0 1.6 0.00 0.00 0.00 81 1015.1
20260506072020 3 0.0 0.0 0.00 0.00 0.00 82 1015.2
20260506071020 3 0.0 0.0 0.00 0.00 0.00 83 1015.2
20260506062029 0 0.0 0.0 0.00 0.00 0.00 85 1015.3
20260506061028 0 0.0 0.0 0.00 0.00 0.00 84 1015.3
20260506051033 -1 0.0 0.0 0.00 0.00 0.00 84 1015.6
20260506045028 -1 0.0 0.0 0.00 0.00 0.00 84 1015.8
20260506044030 -1 0.0 0.0 0.00 0.00 0.00 83 1015.8
20260506043031 -1 0.0 0.0 0.00 0.00 0.00 84 1015.9
20260506042020 -1 0.0 0.0 0.00 0.00 0.00 83 1015.8
20260506041021 -1 0.0 0.0 0.00 0.00 0.00 83 1015.8
20260506040028 -1 0.0 0.0 0.00 0.00 0.00 83 1015.8
20260506035048 -1 0.0 0.0 0.00 0.00 0.00 83 1015.9
20260506034020 -1 0.0 0.0 0.00 0.00 0.00 83 1016.0
20260506033049 0 0.0 0.0 0.00 0.00 0.00 83 1016.1
20260506032020 0 0.0 0.0 0.00 0.00 0.00 82 1016.2
20260506031019 0 0.0 0.0 0.00 0.00 0.00 82 1016.2
20260506030019 0 0.0 0.0 0.00 0.00 0.00 82 1016.4
20260506025028 0 0.0 0.0 0.00 0.00 0.00 82 1016.4
20260506024019 0 0.0 0.0 0.00 0.00 0.00 82 1016.4
20260506023019 0 0.0 0.0 0.00 0.00 0.00 82 1016.4
20260506022028 0 0.0 0.0 0.00 0.00 0.00 82 1016.4
20260506021040 0 0.0 0.0 0.00 0.00 0.00 81 1016.4
20260506020019 0 0.0 0.0 0.00 0.00 0.00 81 1016.5
20260506015028 0 0.0 0.0 0.00 0.00 0.00 81 1016.5
20260506014041 0 0.0 0.0 0.00 0.00 0.00 81 1016.6
20260506013019 0 0.0 0.0 0.00 0.00 0.00 81 1016.5
20260506012020 0 0.0 0.0 0.00 0.00 0.00 80 1016.6
20260506011028 0 0.0 0.0 0.00 0.00 0.00 80 1016.6
20260506010028 0 0.0 0.0 0.00 0.00 0.00 80 1016.7
20260506005019 0 0.0 0.0 0.00 0.00 0.00 80 1016.7
20260506004029 1 0.0 0.0 0.00 0.00 0.00 80 1016.7
20260506003028 1 0.0 0.0 0.00 0.00 0.00 80 1016.7
20260506002027 1 0.0 0.0 0.00 0.00 0.00 79 1016.8
20260506001019 1 0.0 0.0 0.00 0.00 0.00 79 1016.9
20260506000019 1 0.0 0.0 0.00 0.00 0.00 79 1016.9
20260505235039 1 0.0 0.0 0.00 0.00 0.00 78 1017.0
20260505234019 1 0.0 0.0 0.00 0.00 0.00 78 1017.0
20260505233019 1 0.0 0.0 0.00 0.00 0.00 78 1017.1
20260505232028 1 0.0 0.0 0.00 0.00 0.00 77 1017.2
20260505231028 1 0.0 0.0 0.00 0.00 0.00 77 1017.2
20260505230028 1 0.0 0.0 0.00 0.00 0.00 77 1017.2
20260505225048 1 0.0 0.0 0.00 0.00 0.00 76 1017.3